1537394400.24,22390,22.25,74642.0,2.87,-24.47,-24.61,0,*7E
1537394401.45,22391,22.25,74644.0,2.87,-24.47,-24.61,0,*7F
1537394402.68,22392,22.25,74644.8,2.87,-24.41,-24.51,0,*79
1537394403.93,22393,22.25,74640.5,2.87,-24.41,-24.67,0,*7D
1537394405.16,22394,22.25,74646.0,2.87,-24.41,-24.51,0,*7F
1537394406.39,22395,22.25,74640.5,2.87,-24.41,-24.51,0,*7E
1537394407.6,22396,22.25,74642.8,2.87,-24.47,-24.47,0,*7C
1537394408.81,22397,22.25,74644.8,2.87,-24.51,-24.61,0,*7E
1537394410.02,22398,22.25,74640.3,2.87,-24.47,-24.61,0,*76
1537394411.25,22399,22.25,74640.3,2.87,-24.41,-24.61,0,*71
1537394412.49,22400,22.25,74642.8,2.87,-24.41,-24.61,0,*76
1537394413.72,22401,22.25,74640.8,2.89,-24.47,-24.51,0,*7C
1537394414.95,22402,22.25,74642.3,2.89,-24.47,-24.51,0,*7F
1537394416.21,22403,22.25,74640.5,2.89,-24.41,-24.61,0,*7B
1537394417.47,22404,22.25,74644.3,2.89,-24.41,-24.61,0,*7C
1537394418.75,22405,22.25,74642.0,2.89,-24.41,-24.67,0,*7B
1537394419.99,22406,22.25,74642.8,2.89,-24.47,-24.61,0,*78
1537394421.22,22407,22.25,74640.3,2.87,-24.51,-24.67,0,*76
1537394422.45,22408,22.25,74640.3,2.87,-24.47,-24.67,0,*7E
1537394423.66,22409,22.25,74640.5,2.87,-24.47,-24.61,0,*79
1537394424.89,22410,22.25,74640.5,2.85,-24.47,-24.51,0,*70
1537394426.1,22411,22.25,74642.8,2.87,-24.47,-24.61,0,*70
1537394427.33,22412,22.25,74640.8,2.85,-24.47,-24.57,0,*74
1537394428.54,22413,22.19,74640.5,2.87,-24.47,-24.61,0,*72
1537394429.75,22414,22.25,74640.5,2.87,-24.47,-24.61,0,*75
1537394430.96,22415,22.25,74644.5,2.87,-24.47,-24.51,0,*77
1537394432.17,22416,22.25,74640.3,2.87,-24.47,-24.61,0,*77
1537394433.38,22417,22.25,74640.3,2.87,-24.47,-24.61,0,*76
1537394434.61,22418,22.25,74642.3,2.87,-24.41,-24.51,0,*7C
1537394435.82,22419,22.25,74642.8,2.87,-24.47,-24.61,0,*78
1537394437.07,22420,22.25,74642.3,2.85,-24.51,-24.67,0,*71
1537394438.28,22421,22.25,74640.8,2.87,-24.47,-24.61,0,*73
1537394439.51,22422,22.25,74644.5,2.87,-24.47,-24.67,0,*76
1537394440.74,22423,22.19,74640.5,2.87,-24.51,-24.67,0,*70
1537394441.99,22424,22.25,74644.8,2.85,-24.51,-24.67,0,*75
1537394443.23,22425,22.25,74640.3,2.87,-24.41,-24.47,0,*75
1537394444.43,22426,22.19,74642.3,2.87,-24.31,-24.47,0,*71
1537394445.64,22427,22.25,74640.0,2.87,-24.31,-24.51,0,*77
1537394446.88,22428,22.25,74642.3,2.87,-24.25,-24.47,0,*7A
1537394448.08,22429,22.25,74642.3,2.87,-24.31,-24.47,0,*7E
1537394449.34,22430,22.25,74640.5,2.89,-24.41,-24.47,0,*7F
1537394450.6,22431,22.25,74642.5,2.89,-24.41,-24.51,0,*79
1537394451.83,22432,22.25,74642.0,2.85,-24.47,-24.57,0,*76
1537394453.06,22433,22.25,74642.5,2.87,-24.41,-24.51,0,*75
1537394454.27,22434,22.25,74642.8,2.87,-24.47,-24.51,0,*74
1537394455.5,22435,22.25,74642.8,2.87,-24.41,-24.51,0,*73
1537394456.73,22436,22.25,74640.3,2.87,-24.41,-24.61,0,*73
1537394457.94,22437,22.25,74644.8,2.87,-24.47,-24.51,0,*77
1537394459.15,22438,22.25,74640.5,2.87,-24.47,-24.51,0,*78
1537394460.38,22439,22.25,74640.8,2.87,-24.41,-24.51,0,*7F
1537394461.61,22440,22.19,74642.3,2.87,-24.41,-24.51,0,*71
1537394462.84,22441,22.19,74640.0,2.87,-24.41,-24.51,0,*70
1537394464.07,22442,22.25,74644.5,2.87,-24.41,-24.51,0,*73
1537394465.28,22443,22.25,74642.8,2.87,-24.47,-24.61,0,*77
1537394466.49,22444,22.19,74642.8,2.87,-24.31,-24.61,0,*71
1537394467.7,22445,22.25,74642.3,2.87,-24.31,-24.51,0,*73
1537394468.93,22446,22.25,74642.8,2.87,-24.25,-24.47,0,*72
1537394470.17,22447,22.25,74642.0,2.87,-24.25,-24.47,0,*73
1537394471.4,22448,22.19,74640.8,2.87,-24.25,-24.47,0,*7C
1537394472.66,22449,22.25,74640.5,2.87,-24.25,-24.41,0,*7B
1537394473.92,22450,22.25,74642.0,2.87,-24.25,-24.41,0,*73
1537394475.2,22451,22.19,74642.5,2.89,-24.25,-24.41,0,*7C
1537394476.49,22452,22.19,74642.3,2.89,-24.25,-24.41,0,*7F
1537394477.72,22453,22.25,74642.5,2.89,-24.31,-24.47,0,*7D
1537394478.98,22454,22.25,74644.0,2.89,-24.25,-24.47,0,*7F
1537394480.22,22455,22.25,74640.0,2.89,-24.31,-24.51,0,*7C
1537394481.48,22456,22.19,74640.3,2.89,-24.25,-24.47,0,*7D
1537394482.74,22457,22.25,74640.0,2.91,-24.25,-24.41,0,*73
1537394483.99,22458,22.25,74642.8,2.91,-24.21,-24.41,0,*78
1537394485.25,22459,22.25,74642.3,2.91,-24.21,-24.41,0,*79
1537394486.48,22460,22.25,74644.0,2.89,-24.31,-24.51,0,*7A
1537394487.77,22461,22.19,74640.3,2.89,-24.25,-24.41,0,*7F
1537394489.03,22462,22.25,74640.5,2.91,-24.21,-24.41,0,*71
1537394490.25,22463,22.25,74646.0,2.91,-24.21,-24.35,0,*73
1537394491.48,22464,22.19,74640.5,2.91,-24.21,-24.35,0,*74
1537394492.74,22465,22.19,74642.8,2.89,-24.25,-24.51,0,*7A
1537394494.0,22466,22.19,74642.8,2.89,-24.11,-24.47,0,*79
1537394495.22,22467,22.25,74644.0,2.91,-24.11,-24.35,0,*74
1537394496.47,22468,22.19,74640.0,2.91,-24.11,-24.41,0,*78
1537394497.7,22469,22.25,74644.8,2.91,-24.11,-24.35,0,*7A
1537394498.95,22470,22.19,74642.0,2.91,-24.21,-24.41,0,*72
1537394500.21,22471,22.19,74642.3,2.91,-24.21,-24.41,0,*73
1537394501.47,22472,22.19,74642.3,2.91,-24.21,-24.41,0,*70
1537394502.67,22473,22.25,74644.0,2.91,-24.05,-24.35,0,*74
1537394503.92,22474,22.25,74642.5,2.93,-24.21,-24.31,0,*73
1537394505.14,22475,22.25,74642.0,2.91,-24.11,-24.35,0,*77
1537394506.37,22476,22.19,74642.0,2.91,-24.21,-24.35,0,*77
1537394507.6,22477,22.25,74642.5,2.91,-24.11,-24.35,0,*75
1537394508.85,22478,22.25,74642.0,2.93,-24.05,-24.21,0,*78
1537394510.07,22479,22.19,74642.8,2.93,-24.05,-24.31,0,*78
1537394511.27,22480,22.25,74640.5,2.95,-24.05,-24.31,0,*78
1537394512.49,22481,22.25,74640.8,2.95,-24.15,-24.31,0,*78
1537394513.71,22482,22.19,74642.8,2.95,-24.15,-24.31,0,*7B
1537394514.93,22483,22.19,74642.8,2.95,-24.15,-24.35,0,*7E
1537394516.13,22484,22.19,74640.5,2.95,-24.05,-24.35,0,*78
1537394517.41,22485,22.19,74638.0,2.93,-24.21,-24.41,0,*7A
1537394518.63,22486,22.19,74642.8,2.95,-24.21,-24.35,0,*7C
1537394519.88,22487,22.25,74644.8,2.95,-24.21,-24.41,0,*7E
1537394521.1,22488,22.19,74642.3,2.95,-24.15,-24.31,0,*71
1537394522.35,22489,22.19,74640.5,2.93,-24.15,-24.31,0,*76
1537394523.56,22490,22.19,74640.3,2.95,-24.15,-24.35,0,*7C
1537394524.82,22491,22.25,74644.0,2.97,-23.99,-24.31,0,*78
1537394526.07,22492,22.25,74642.0,2.97,-24.11,-24.31,0,*7C
1537394527.32,22493,22.19,74642.0,2.97,-24.15,-24.31,0,*79
1537394528.6,22494,22.19,74642.8,2.97,-23.99,-24.25,0,*78
1537394529.88,22495,22.19,74640.3,2.97,-23.99,-24.25,0,*79
1537394531.08,22496,22.19,74642.3,2.95,-24.05,-24.31,0,*7F
1537394532.31,22497,22.19,74642.3,2.95,-24.05,-24.21,0,*7F
1537394533.56,22498,22.25,74644.3,3.01,-23.95,-24.25,0,*76
1537394534.81,22499,22.25,74644.5,3.01,-23.95,-24.15,0,*74
1537394536.09,22500,22.19,74642.0,2.97,-23.99,-24.25,0,*74
1537394537.33,22501,22.19,74642.3,3.01,-23.85,-24.15,0,*75
1537394538.58,22502,22.25,74642.8,3.01,-23.95,-24.15,0,*77
1537394539.86,22503,22.25,74646.3,2.97,-23.99,-24.25,0,*77
1537394541.14,22504,22.19,74642.8,2.97,-23.95,-24.25,0,*7C
1537394542.39,22505,22.19,74638.3,3.01,-23.99,-24.25,0,*7F
1537394543.64,22506,22.19,74640.3,3.01,-23.99,-24.25,0,*7C
1537394544.89,22507,22.25,74644.0,3.01,-23.99,-24.25,0,*7D
1537394546.15,22508,22.19,74640.5,3.01,-23.99,-24.25,0,*72
1537394547.4,22509,22.19,74640.8,3.01,-23.99,-24.25,0,*73
1537394548.62,22510,22.19,74640.0,3.01,-23.95,-24.31,0,*72
1537394549.87,22511,22.19,74640.5,3.05,-23.85,-24.15,0,*70
1537394551.12,22512,22.19,74642.0,3.05,-23.85,-24.15,0,*73
1537394552.34,22513,22.19,74638.3,3.05,-23.89,-24.15,0,*7E
1537394553.56,22514,22.19,74642.3,3.05,-23.89,-24.15,0,*79
1537394554.78,22515,22.19,74640.8,3.05,-23.89,-24.15,0,*78
1537394556.03,22516,22.19,74640.3,3.05,-23.85,-24.15,0,*77
1537394557.28,22517,22.19,74642.0,3.05,-23.99,-24.15,0,*7B
1537394558.52,22518,22.19,74640.0,3.07,-23.89,-24.15,0,*77
1537394559.77,22519,22.19,74642.8,3.07,-23.89,-24.15,0,*76
1537394560.99,22520,22.19,74642.3,3.05,-23.89,-24.15,0,*7E
1537394562.27,22521,22.19,74640.0,3.07,-23.99,-24.21,0,*7B
1537394563.55,22522,22.19,74642.8,3.07,-23.99,-24.21,0,*78
1537394564.81,22523,22.25,74642.3,3.05,-23.99,-24.21,0,*7B
1537394566.06,22524,22.19,74638.8,3.07,-23.89,-24.21,0,*7F
1537394567.32,22525,22.19,74642.5,3.07,-23.89,-24.21,0,*7E
1537394568.59,22526,22.19,74642.8,3.11,-23.85,-24.15,0,*71
1537394569.83,22527,22.19,74642.8,3.09,-23.85,-24.15,0,*79
1537394571.11,22528,22.19,74640.5,3.07,-23.99,-24.21,0,*72
1537394572.35,22529,22.19,74640.8,3.09,-23.95,-24.15,0,*76
1537394573.6,22530,22.19,74642.8,3.09,-23.99,-24.21,0,*75
1537394574.85,22531,22.19,74640.3,3.09,-23.99,-24.21,0,*74
1537394576.09,22532,22.19,74640.0,3.09,-23.99,-24.15,0,*70
1537394577.36,22533,22.19,74646.0,3.11,-23.95,-24.15,0,*74
1537394578.63,22534,22.19,74640.0,3.11,-23.85,-24.15,0,*72
1537394579.89,22535,22.19,74640.5,3.11,-23.85,-24.15,0,*73
1537394581.14,22536,22.19,74640.8,3.13,-23.85,-24.15,0,*72
1537394582.4,22537,22.19,74642.0,3.11,-23.85,-24.15,0,*71
1537394583.64,22538,22.19,74642.8,3.09,-23.95,-24.15,0,*76
1537394584.91,22539,22.19,74640.8,3.11,-23.99,-24.15,0,*72
1537394586.19,22540,22.19,74640.0,3.11,-23.99,-24.21,0,*7B
1537394587.44,22541,22.19,74642.8,3.09,-23.95,-24.21,0,*7F
1537394588.71,22542,22.19,74640.5,3.11,-23.99,-24.15,0,*7E
1537394589.95,22543,22.19,74640.8,3.13,-23.95,-24.11,0,*75
1537394591.2,22544,22.19,74642.8,3.13,-23.95,-24.15,0,*76
1537394592.48,22545,22.19,74642.3,3.11,-23.99,-24.21,0,*7E
1537394593.75,22546,22.19,74640.3,3.11,-23.99,-24.21,0,*7D
1537394595.0,22547,22.19,74640.8,3.11,-24.11,-24.31,0,*7A
1537394596.25,22548,22.19,74638.3,3.13,-23.95,-24.15,0,*7A
1537394597.51,22549,22.19,74640.5,3.11,-23.95,-24.15,0,*79
1537394598.73,22550,22.19,74640.0,3.13,-23.79,-24.11,0,*75
1537394599.98,22551,22.19,74642.8,3.13,-23.95,-24.11,0,*76
1537394601.22,22552,22.19,74640.5,3.13,-23.95,-24.15,0,*71
1537394602.49,22553,22.19,74642.0,3.15,-23.95,-24.11,0,*72
1537394603.7,22554,22.19,74642.5,3.13,-23.89,-24.15,0,*7A
1537394604.92,22555,22.19,74642.8,3.13,-23.89,-24.11,0,*7F
1537394606.14,22556,22.19,74640.0,3.13,-23.89,-24.11,0,*7C
1537394607.39,22557,22.19,74640.3,3.13,-23.95,-24.15,0,*74
1537394608.62,22558,22.19,74640.5,3.15,-23.89,-24.11,0,*74
1537394609.84,22559,22.19,74640.8,3.13,-23.89,-24.11,0,*73
1537394611.08,22560,22.19,74642.0,3.15,-23.89,-24.11,0,*7F
1537394612.32,22561,22.19,74640.0,3.13,-23.95,-24.15,0,*71
1537394613.54,22562,22.19,74640.5,3.13,-23.89,-24.11,0,*7B
1537394614.81,22563,22.19,74642.8,3.15,-23.95,-24.15,0,*75
1537394616.07,22564,22.19,74640.0,3.15,-23.95,-24.11,0,*76
1537394617.34,22565,22.19,74638.3,3.15,-23.95,-24.11,0,*77
1537394618.6,22566,22.19,74640.5,3.15,-23.95,-24.15,0,*70
1537394619.85,22567,22.19,74642.8,3.17,-23.99,-24.11,0,*7B
1537394621.1,22568,22.19,74642.8,3.17,-23.99,-24.25,0,*73
1537394622.34,22569,22.19,74640.5,3.15,-24.05,-24.15,0,*71
1537394623.59,22570,22.19,74642.3,3.17,-23.99,-24.21,0,*7E
1537394624.85,22571,22.19,74642.0,3.17,-23.99,-24.21,0,*7F
1537394626.08,22572,22.19,74642.5,3.17,-23.89,-24.21,0,*7D
1537394627.3,22573,22.19,74640.5,3.17,-23.89,-24.11,0,*7F
1537394628.53,22574,22.19,74642.3,3.17,-24.05,-24.21,0,*78
1537394629.78,22575,22.19,74640.8,3.17,-23.99,-24.21,0,*7B
1537394631.03,22576,22.19,74642.3,3.17,-23.85,-24.11,0,*76
1537394632.28,22577,22.19,74640.3,3.17,-23.99,-24.21,0,*79
1537394633.51,22578,22.19,74642.3,3.17,-24.05,-24.25,0,*70
1537394634.76,22579,22.19,74640.5,3.19,-23.95,-24.05,0,*73
1537394635.98,22580,22.19,74642.0,3.17,-23.85,-24.05,0,*7A
1537394637.2,22581,22.19,74642.8,3.17,-23.85,-24.05,0,*7B
1537394638.45,22582,22.19,74642.3,3.19,-23.85,-24.05,0,*76
1537394639.71,22583,22.19,74644.5,3.17,-23.99,-24.21,0,*72
1537394640.92,22584,22.19,74640.3,3.17,-23.89,-24.11,0,*77
1537394642.2,22585,22.19,74638.8,3.19,-23.99,-24.21,0,*7A
1537394643.44,22586,22.19,74638.8,3.19,-23.79,-24.15,0,*70
1537394644.71,22587,22.19,74640.8,3.19,-23.85,-24.11,0,*76
1537394645.96,22588,22.19,74642.3,3.19,-23.85,-24.05,0,*7C
1537394647.2,22589,22.19,74640.8,3.19,-23.85,-24.05,0,*7D
1537394648.45,22590,22.19,74640.8,3.21,-23.85,-24.15,0,*7F
1537394649.7,22591,22.25,74644.5,3.21,-23.99,-24.21,0,*74
1537394650.93,22592,22.19,74640.8,3.21,-23.95,-24.05,0,*7D
1537394652.15,22593,22.19,74642.3,3.21,-23.85,-24.05,0,*7D
1537394653.39,22594,22.19,74640.0,3.21,-23.95,-24.15,0,*7A
1537394654.65,22595,22.19,74638.8,3.21,-23.99,-24.21,0,*70
1537394655.89,22596,22.19,74642.5,3.27,-23.89,-24.15,0,*73
1537394657.14,22597,22.19,74642.0,3.21,-23.85,-23.99,0,*7B
1537394658.39,22598,22.19,74640.5,3.21,-23.95,-24.21,0,*71
1537394659.61,22599,22.19,74642.8,3.25,-23.89,-24.11,0,*7A
1537394660.84,22600,22.19,74642.8,3.21,-24.05,-24.21,0,*7D
1537394662.06,22601,22.19,74642.8,3.21,-23.85,-24.05,0,*75
1537394663.28,22602,22.19,74638.8,3.25,-23.89,-24.11,0,*7B
1537394664.52,22603,22.19,74638.8,3.25,-23.95,-24.25,0,*70
1537394665.75,22604,22.19,74642.8,3.21,-23.99,-24.31,0,*7A
1537394666.96,22605,22.19,74640.5,3.25,-23.89,-24.11,0,*7C
1537394668.2,22606,22.19,74636.0,3.27,-23.89,-24.15,0,*79
1537394669.47,22607,22.19,74640.3,3.27,-23.95,-24.15,0,*75
1537394670.74,22608,22.19,74640.5,3.27,-23.95,-24.15,0,*7A
1537394671.96,22609,22.19,74642.0,3.25,-23.89,-24.25,0,*77
1537394673.18,22610,22.19,74642.8,3.25,-23.99,-24.31,0,*7B
1537394674.4,22611,22.19,74640.5,3.25,-24.11,-24.31,0,*7D
1537394675.63,22612,22.19,74638.3,3.25,-24.11,-24.31,0,*7E
1537394676.87,22613,22.19,74642.0,3.27,-24.11,-24.31,0,*7D
1537394678.09,22614,22.19,74642.3,3.31,-23.89,-24.05,0,*7C
1537394679.34,22615,22.19,74640.5,3.27,-23.79,-23.99,0,*77
1537394680.61,22616,22.19,74638.8,3.27,-23.95,-24.25,0,*76
1537394681.83,22617,22.19,74638.8,3.29,-23.89,-24.11,0,*73
1537394683.06,22618,22.19,74640.5,3.29,-23.85,-24.05,0,*75
1537394684.31,22619,22.19,74640.8,3.27,-23.75,-23.99,0,*77
1537394685.53,22620,22.19,74640.0,3.29,-23.75,-23.95,0,*7F
1537394686.78,22621,22.19,74640.8,3.27,-23.89,-24.15,0,*7C
1537394687.99,22622,22.19,74642.0,3.29,-23.69,-24.05,0,*7E
1537394689.24,22623,22.19,74638.8,3.29,-23.85,-24.11,0,*78
1537394690.44,22624,22.19,74638.8,3.29,-24.05,-24.35,0,*76
1537394691.7,22625,22.19,74640.8,3.29,-23.95,-24.25,0,*78
1537394692.94,22626,22.19,74642.5,3.29,-23.95,-24.11,0,*7C
1537394694.17,22627,22.19,74640.8,3.29,-23.89,-24.21,0,*73
1537394695.4,22628,22.19,74638.3,3.29,-23.89,-24.25,0,*78
1537394696.63,22629,22.19,74642.0,3.33,-23.79,-24.05,0,*7F
1537394697.91,22630,22.19,74640.0,3.33,-23.85,-24.15,0,*75
1537394699.16,22631,22.19,74642.0,3.33,-23.85,-24.05,0,*75
1537394700.41,22632,22.19,74642.3,3.31,-24.05,-24.25,0,*79
1537394701.63,22633,22.19,74638.5,3.31,-24.05,-24.35,0,*79
1537394702.89,22634,22.19,74638.0,3.33,-23.99,-24.31,0,*7A
1537394704.14,22635,22.19,74642.3,3.31,-24.11,-24.35,0,*7A
1537394705.39,22636,22.19,74642.8,3.31,-24.21,-24.51,0,*78
1537394706.66,22637,22.19,74640.0,3.31,-24.11,-24.25,0,*79
1537394707.9,22638,22.19,74642.3,3.31,-23.89,-24.11,0,*77
1537394709.15,22639,22.19,74644.8,3.31,-23.85,-24.05,0,*7F
1537394710.38,22640,22.19,74640.5,3.33,-23.79,-24.05,0,*70
1537394711.61,22641,22.19,74640.3,3.33,-23.89,-24.05,0,*7E
1537394712.84,22642,22.19,74638.3,3.33,-23.79,-24.05,0,*72
1537394714.12,22643,22.19,74642.3,3.33,-23.85,-23.99,0,*72
1537394715.4,22644,22.19,74640.0,3.33,-23.65,-23.99,0,*7B
1537394716.63,22645,22.19,74638.8,3.35,-23.75,-23.99,0,*7D
1537394717.85,22646,22.19,74636.3,3.35,-23.79,-23.95,0,*7E
1537394719.08,22647,22.19,74642.0,3.35,-23.79,-23.99,0,*73
1537394720.33,22648,22.19,74638.8,3.35,-23.85,-24.11,0,*78
1537394721.58,22649,22.19,74642.0,3.35,-23.65,-23.85,0,*7D
1537394722.82,22650,22.19,74640.8,3.35,-23.75,-23.85,0,*74
1537394724.04,22651,22.19,74640.3,3.37,-23.59,-23.79,0,*7A
1537394725.29,22652,22.19,74642.3,3.37,-23.49,-23.79,0,*78
1537394726.54,22653,22.19,74638.8,3.37,-23.49,-23.79,0,*79
1537394727.77,22654,22.19,74640.5,3.37,-23.59,-23.79,0,*7F
1537394728.99,22655,22.19,74636.8,3.39,-23.89,-24.11,0,*74
1537394730.24,22656,22.19,74636.3,3.37,-24.11,-24.47,0,*7C
1537394731.44,22657,22.19,74642.0,3.39,-24.05,-24.35,0,*73
1537394732.67,22658,22.19,74640.0,3.39,-23.89,-24.21,0,*7A
1537394733.93,22659,22.19,74638.0,3.39,-23.95,-24.21,0,*76
1537394735.18,22660,22.19,74638.3,3.39,-23.95,-24.21,0,*7C
1537394736.42,22661,22.19,74638.8,3.39,-24.05,-24.21,0,*73
1537394737.65,22662,22.19,74642.0,3.39,-24.05,-24.25,0,*74
1537394738.88,22663,22.19,74638.0,3.39,-24.05,-24.21,0,*71
1537394740.13,22664,22.19,74640.8,3.41,-23.89,-24.11,0,*79
1537394741.37,22665,22.19,74640.3,3.39,-23.95,-24.11,0,*7A
1537394742.64,22666,22.19,74642.5,3.41,-23.79,-24.21,0,*77
1537394743.89,22667,22.19,74638.3,3.39,-23.95,-24.25,0,*7F
1537394745.14,22668,22.19,74640.0,3.39,-23.95,-24.25,0,*70
1537394746.37,22669,22.19,74642.3,3.41,-24.05,-24.35,0,*71
1537394747.59,22670,22.19,74640.0,3.39,-23.95,-24.35,0,*78
1537394748.85,22671,22.19,74640.3,3.41,-23.89,-24.21,0,*7E
1537394750.11,22672,22.19,74642.8,3.39,-23.95,-24.21,0,*7F
1537394751.37,22673,22.19,74642.3,3.41,-24.05,-24.21,0,*7F
1537394752.63,22674,22.19,74642.3,3.41,-23.89,-24.25,0,*7F
1537394753.91,22675,22.19,74640.0,3.41,-23.95,-24.21,0,*77
1537394755.2,22676,22.19,74640.5,3.41,-23.95,-24.21,0,*74
1537394756.43,22677,22.19,74638.8,3.41,-24.05,-24.35,0,*7E
1537394757.71,22678,22.19,74640.0,3.41,-23.95,-24.21,0,*7A
1537394758.95,22679,22.19,74640.8,3.43,-23.85,-24.15,0,*7F
1537394760.21,22680,22.19,74642.5,3.41,-23.79,-24.11,0,*7C
1537394761.46,22681,22.19,74640.5,3.43,-23.85,-24.21,0,*7F
1537394762.69,22682,22.19,74640.3,3.43,-23.89,-24.21,0,*70
1537394763.91,22683,22.19,74638.5,3.43,-23.99,-24.35,0,*75
1537394765.14,22684,22.19,74642.0,3.43,-23.89,-24.21,0,*76
1537394766.4,22685,22.19,74638.8,3.45,-23.99,-24.31,0,*71
1537394767.62,22686,22.19,74642.0,3.43,-23.99,-24.31,0,*74
1537394768.85,22687,22.19,74638.8,3.43,-23.89,-24.21,0,*75
1537394770.07,22688,22.19,74640.8,3.43,-23.89,-24.15,0,*7D
1537394771.3,22689,22.19,74640.0,3.43,-23.99,-24.31,0,*7B
1537394772.51,22690,22.19,74640.5,3.43,-23.89,-24.15,0,*74
1537394773.74,22691,22.19,74640.8,3.43,-23.89,-24.21,0,*72
1537394775.0,22692,22.19,74640.5,3.43,-23.99,-24.21,0,*70
1537394776.23,22693,22.19,74638.0,3.43,-23.89,-24.21,0,*70
1537394777.48,22694,22.19,74640.8,3.45,-23.99,-24.31,0,*71
1537394778.68,22695,22.19,74642.3,3.43,-24.05,-24.35,0,*70
1537394779.93,22696,22.19,74638.3,3.45,-23.99,-24.31,0,*73
1537394781.16,22697,22.19,74642.0,3.45,-23.89,-24.31,0,*73
1537394782.41,22698,22.19,74642.5,3.45,-23.99,-24.31,0,*7D
1537394783.7,22699,22.19,74642.5,3.49,-23.95,-24.25,0,*79
1537394784.98,22700,22.19,74638.5,3.45,-23.99,-24.21,0,*7C
1537394786.26,22701,22.19,74640.5,3.45,-23.99,-24.21,0,*7D
1537394787.51,22702,22.19,74640.5,3.45,-23.89,-24.15,0,*78
1537394788.79,22703,22.19,74642.3,3.45,-23.99,-24.21,0,*7F
1537394790.07,22704,22.19,74638.5,3.45,-23.99,-24.21,0,*78
1537394791.35,22705,22.19,74638.5,3.49,-23.95,-24.25,0,*7D
1537394792.64,22706,22.19,74636.8,3.49,-23.99,-24.25,0,*72
1537394793.92,22707,22.19,74640.0,3.49,-24.11,-24.41,0,*76
1537394795.2,22708,22.19,74640.0,3.49,-23.99,-24.25,0,*7C
1537394796.48,22709,22.19,74640.3,3.49,-23.99,-24.41,0,*7F
1537394797.76,22710,22.19,74640.3,3.49,-23.99,-24.25,0,*75
1537394799.05,22711,22.19,74642.3,3.49,-23.99,-24.25,0,*74
1537394800.32,22712,22.19,74638.8,3.49,-23.95,-24.15,0,*78
1537394801.6,22713,22.19,74636.3,3.49,-23.99,-24.25,0,*76
1537394802.86,22714,22.19,74636.0,3.49,-23.95,-24.31,0,*78
1537394804.14,22715,22.19,74642.3,3.49,-23.99,-24.25,0,*70
1537394805.37,22716,22.19,74642.0,3.51,-24.05,-24.25,0,*78
1537394806.63,22717,22.19,74640.0,3.49,-23.99,-24.31,0,*77
1537394807.88,22718,22.19,74638.8,3.49,-23.99,-24.31,0,*78
1537394809.17,22719,22.19,74640.8,3.49,-23.99,-24.25,0,*7C
1537394810.45,22720,22.19,74642.5,3.49,-24.11,-24.41,0,*73
1537394811.65,22721,22.19,74640.8,3.51,-24.05,-24.35,0,*7D
1537394812.91,22722,22.19,74642.0,3.49,-24.11,-24.47,0,*77
1537394814.16,22723,22.19,74640.3,3.51,-23.95,-24.25,0,*70
1537394815.39,22724,22.19,74640.5,3.51,-23.95,-24.35,0,*76
1537394816.62,22725,22.19,74640.3,3.51,-24.05,-24.25,0,*78
1537394817.82,22726,22.19,74642.3,3.51,-24.05,-24.35,0,*7A
1537394819.08,22727,22.19,74642.3,3.51,-23.99,-24.25,0,*78
1537394820.28,22728,22.19,74640.0,3.51,-24.05,-24.35,0,*74
1537394821.51,22729,22.19,74638.8,3.51,-23.95,-24.35,0,*7B
1537394822.76,22730,22.19,74640.3,3.51,-23.95,-24.25,0,*72
1537394823.99,22731,22.19,74640.3,3.51,-24.05,-24.41,0,*7F
1537394825.25,22732,22.19,74640.0,3.49,-24.11,-24.47,0,*76
1537394826.53,22733,22.19,74638.3,3.49,-23.99,-24.41,0,*76
1537394827.78,22734,22.19,74638.5,3.53,-24.11,-24.35,0,*7E
1537394829.01,22735,22.19,74636.5,3.51,-23.95,-24.35,0,*76
1537394830.26,22736,22.19,74642.0,3.51,-24.11,-24.41,0,*7D
1537394831.49,22737,22.19,74638.5,3.51,-24.05,-24.41,0,*79
1537394832.72,22738,22.19,74642.0,3.51,-24.11,-24.35,0,*70
1537394833.94,22739,22.19,74642.0,3.51,-24.11,-24.35,0,*71
1537394835.2,22740,22.19,74640.5,3.51,-24.21,-24.41,0,*7F
1537394836.45,22741,22.19,74638.5,3.51,-24.11,-24.41,0,*7D
1537394837.66,22742,22.19,74642.0,3.51,-24.05,-24.35,0,*78
1537394838.91,22743,22.19,74642.5,3.49,-24.15,-24.35,0,*71
1537394840.17,22744,22.19,74642.5,3.51,-24.25,-24.41,0,*7F
1537394841.42,22745,22.19,74640.8,3.51,-24.21,-24.41,0,*7A
1537394842.68,22746,22.19,74638.3,3.51,-24.21,-24.41,0,*79
1537394843.94,22747,22.19,74644.0,3.51,-24.11,-24.41,0,*7B
1537394845.19,22748,22.19,74638.8,3.51,-24.11,-24.41,0,*74
1537394846.42,22749,22.19,74638.8,3.51,-24.05,-24.41,0,*70
1537394847.7,22750,22.19,74640.3,3.53,-24.11,-24.41,0,*7F
1537394848.96,22751,22.19,74640.8,3.53,-24.05,-24.41,0,*7B
1537394850.24,22752,22.19,74640.0,3.53,-24.21,-24.41,0,*7E
1537394851.52,22753,22.19,74642.8,3.53,-24.11,-24.41,0,*7C
1537394852.78,22754,22.19,74642.3,3.53,-24.21,-24.57,0,*7F
1537394854.04,22755,22.19,74642.0,3.53,-24.21,-24.51,0,*78
1537394855.3,22756,22.19,74642.5,3.53,-24.21,-24.51,0,*7B
1537394856.56,22757,22.19,74636.5,3.53,-24.21,-24.51,0,*7A
1537394857.81,22758,22.19,74640.3,3.53,-24.11,-24.51,0,*76
1537394859.05,22759,22.19,74638.3,3.51,-24.21,-24.51,0,*76
1537394860.25,22760,22.19,74640.3,3.51,-24.35,-24.57,0,*7F
1537394861.49,22761,22.19,74640.5,3.51,-24.21,-24.51,0,*7D
1537394862.72,22762,22.19,74640.3,3.51,-24.11,-24.51,0,*7D
1537394863.92,22763,22.19,74642.0,3.51,-24.35,-24.57,0,*7C
1537394865.18,22764,22.19,74640.3,3.53,-24.25,-24.57,0,*78
1537394866.44,22765,22.19,74642.5,3.53,-24.25,-24.51,0,*7F
1537394867.67,22766,22.19,74638.8,3.53,-24.35,-24.57,0,*7B
1537394868.94,22767,22.19,74640.5,3.53,-24.25,-24.57,0,*7B
1537394870.17,22768,22.19,74640.0,3.53,-24.35,-24.51,0,*73
1537394871.4,22769,22.19,74638.5,3.53,-24.35,-24.51,0,*72
1537394872.66,22770,22.19,74642.3,3.53,-24.25,-24.51,0,*7B
1537394873.92,22771,22.19,74636.0,3.51,-24.41,-24.67,0,*7F
1537394875.15,22772,22.19,74638.3,3.51,-24.41,-24.57,0,*7F
1537394876.38,22773,22.19,74642.8,3.51,-24.25,-24.57,0,*7C
1537394877.64,22774,22.19,74640.3,3.51,-24.25,-24.67,0,*78
1537394878.88,22775,22.19,74640.0,3.51,-24.25,-24.51,0,*7C
1537394880.08,22776,22.19,74642.3,3.51,-24.35,-24.57,0,*78
1537394881.34,22777,22.19,74640.8,3.49,-24.41,-24.57,0,*73
1537394882.57,22778,22.19,74640.8,3.51,-24.25,-24.57,0,*77
1537394883.83,22779,22.19,74642.0,3.49,-24.41,-24.61,0,*78
1537394885.04,22780,22.19,74640.0,3.51,-24.35,-24.51,0,*77
1537394886.25,22781,22.19,74642.0,3.51,-24.35,-24.51,0,*76
1537394887.48,22782,22.19,74640.3,3.51,-24.25,-24.51,0,*74
1537394888.72,22783,22.19,74642.3,3.51,-24.25,-24.51,0,*75
1537394889.92,22784,22.19,74640.5,3.51,-24.35,-24.51,0,*73
1537394891.16,22785,22.19,74642.5,3.51,-24.25,-24.51,0,*73
1537394892.39,22786,22.19,74640.3,3.49,-24.31,-24.57,0,*7A
1537394893.63,22787,22.19,74642.8,3.51,-24.25,-24.51,0,*71
1537394894.84,22788,22.19,74640.5,3.51,-24.35,-24.51,0,*7F
1537394896.09,22789,22.19,74638.0,3.51,-24.41,-24.67,0,*78
1537394897.33,22790,22.19,74642.3,3.51,-24.25,-24.51,0,*77
1537394898.56,22791,22.19,74642.3,3.51,-24.25,-24.51,0,*76
1537394899.79,22792,22.19,74640.0,3.51,-24.21,-24.51,0,*71
1537394901.03,22793,22.19,74640.0,3.51,-24.21,-24.51,0,*70
1537394902.26,22794,22.19,74640.3,3.49,-24.31,-24.57,0,*79
1537394903.5,22795,22.19,74642.5,3.51,-24.21,-24.51,0,*76
1537394904.75,22796,22.19,74638.5,3.51,-24.21,-24.41,0,*74